Change the Weather History Date:

Thursday, October 20, 2011

  Actual Average Record
Temperature  
Mean Temperature 59 °F 49 °F  
Max Temperature 66 °F 57 °F 76 °F (1963)
Min Temperature 51 °F 40 °F 21 °F (1972)
Degree Days  
Heating Degree Days 6 16  
Month to date heating degree days 175 267  
Since 1 July heating degree days 261 460  
Cooling Degree Days 0 0  
Month to date cooling degree days 11 0  
Year to date cooling degree days 638 468  
Growing Degree Days 8 (Base 50)    
Moisture  
Dew Point 51 °F    
Average Humidity 76    
Maximum Humidity 100    
Minimum Humidity 52    
Precipitation  
Precipitation 0.23 in 0.14 in 3.39 in (1996)
Month to date precipitation 4.07 3.10  
Year to date precipitation 55.43 38.39  
Snow  
Snow 0.00 in 0.00 in 0.80 in (1926)
Month to date snowfall 0.0 0.1  
Since 1 July snowfall 0.0 0.1  
Since 1 September snowfall 0.0 0.1  
Snow Depth 0.00 in    
Sea Level Pressure  
Sea Level Pressure 29.54 in    
Wind  
Wind Speed 13 mph (East)    
Max Wind Speed 26 mph    
Max Gust Speed 35 mph    
Visibility 4 miles    
Events Fog , Rain    
T = Trace of Precipitation, MM = Missing Value Source: NWS Daily Summary

Daily Weather History Graph

Daily Weather History Graph

Search for Another Location

Airport or City:

Trip Planner

Search our weather history database for the weather conditions in past years. The results will help you decide how hot, cold, wet, or windy it might be!

Date:

Astronomy

Oct. 20, 2011 Rise Set
Actual Time 7:05 AM EDT 5:58 PM EDT
Civil Twilight 6:37 AM EDT 6:26 PM EDT
Nautical Twilight 6:04 AM EDT 6:59 PM EDT
Astronomical Twilight 5:32 AM EDT 7:31 PM EDT
Moon No Moon Rise 2:12 PM EDT (10/20)
Length of Visible Light 11h 49m
Length of Day
10h 52m
Last Quarter, 44% of the Moon is Illuminated
Oct 20
Last Quarter
Oct 26
New
Nov 2
First Quarter
Nov 10
Full
Nov 18
Last Quarter

Hourly Weather History & Observations

Time (EDT) Temp. Dew Point Humidity Pressure Visibility Wind Dir Wind Speed Gust Speed Precip Events Conditions
12:02 AM 53.6 °F 53.6 °F 100% 29.61 in 2.0 mi NE 15.0 mph 27.6 mph 0.00 in Rain Light Rain
12:24 AM 53.6 °F 53.6 °F 100% 29.60 in 5.0 mi NE 15.0 mph 21.9 mph 0.02 in Rain Light Rain
12:54 AM 53.1 °F 53.1 °F 100% 29.60 in 4.0 mi NE 10.4 mph 23.0 mph 0.12 in Rain Rain
1:54 AM 53.1 °F 52.0 °F 96% 29.58 in 8.0 mi NE 11.5 mph 19.6 mph 0.09 in Rain Light Rain
2:54 AM 53.1 °F 52.0 °F 96% 29.56 in 5.0 mi NE 11.5 mph 21.9 mph 0.10 in Rain Light Rain
3:52 AM 51.8 °F 51.8 °F 100% 29.55 in 2.5 mi NE 10.4 mph 19.6 mph 0.01 in Rain Light Rain
3:54 AM 52.0 °F 52.0 °F 100% 29.56 in 2.0 mi ENE 11.5 mph 19.6 mph 0.01 in Rain Light Rain
4:07 AM 51.8 °F 51.8 °F 100% 29.56 in 1.8 mi ENE 12.7 mph 17.3 mph 0.01 in Rain Light Rain
4:12 AM 51.8 °F 51.8 °F 100% 29.56 in 3.0 mi NE 12.7 mph 18.4 mph 0.01 in Rain Light Rain
4:52 AM 51.8 °F 51.8 °F 100% 29.56 in 1.8 mi NE 9.2 mph 18.4 mph 0.01 in   Overcast
4:54 AM 52.0 °F 52.0 °F 100% 29.57 in 1.2 mi NE 11.5 mph 18.4 mph 0.01 in   Overcast
5:27 AM 51.8 °F 51.8 °F 100% 29.55 in 3.0 mi NE 10.4 mph - N/A   Overcast
5:38 AM 51.8 °F 51.8 °F 100% 29.55 in 1.8 mi NE 11.5 mph 19.6 mph N/A   Overcast
5:54 AM 52.0 °F 52.0 °F 100% 29.56 in 0.5 mi NE 10.4 mph - N/A Fog Fog
6:14 AM 51.8 °F 51.8 °F 100% 29.54 in 0.2 mi NE 10.4 mph - N/A Fog Fog
6:41 AM 51.8 °F 51.8 °F 100% 29.53 in 0.2 mi NE 10.4 mph 18.4 mph N/A Fog Fog
6:50 AM 51.8 °F 51.8 °F 100% 29.53 in 0.2 mi NE 11.5 mph 18.4 mph N/A Fog Fog
6:54 AM 52.0 °F 52.0 °F 100% 29.54 in 0.2 mi NE 11.5 mph - N/A Fog Fog
7:54 AM 52.0 °F 52.0 °F 100% 29.52 in 0.2 mi NE 9.2 mph - N/A Fog Fog
8:54 AM 53.1 °F 52.0 °F 96% 29.52 in 0.2 mi ENE 8.1 mph - 0.01 in Fog Fog
9:54 AM 54.0 °F 53.1 °F 97% 29.49 in 0.2 mi ENE 8.1 mph - 0.01 in Fog , Rain Light Rain
10:54 AM 55.0 °F 55.0 °F 100% 29.50 in 0.2 mi ENE 4.6 mph - 0.00 in Fog Fog
11:54 AM 57.0 °F 57.0 °F 100% 29.48 in 0.2 mi ENE 4.6 mph - 0.01 in Fog Fog
12:29 PM 59.0 °F 59.0 °F 100% 29.46 in 0.2 mi SE 4.6 mph - N/A Fog Fog
12:32 PM 60.8 °F 59.0 °F 94% 29.46 in 0.5 mi SE 6.9 mph - N/A Fog Fog
12:35 PM 60.8 °F 59.0 °F 94% 29.46 in 1.0 mi SE 6.9 mph - N/A   Overcast
12:39 PM 60.8 °F 59.0 °F 94% 29.46 in 6.0 mi SE 9.2 mph - N/A   Mostly Cloudy
12:50 PM 62.6 °F 57.2 °F 82% 29.45 in 10.0 mi SSE 17.3 mph 21.9 mph N/A   Scattered Clouds
12:54 PM 63.0 °F 55.9 °F 78% 29.45 in 10.0 mi South 16.1 mph 21.9 mph N/A   Partly Cloudy
1:54 PM 64.0 °F 50.0 °F 60% 29.46 in 10.0 mi South 25.3 mph 34.5 mph N/A   Partly Cloudy
2:54 PM 64.0 °F 46.9 °F 54% 29.48 in 10.0 mi SSW 16.1 mph 28.8 mph N/A   Scattered Clouds
3:54 PM 62.1 °F 46.9 °F 58% 29.49 in 10.0 mi SSW 10.4 mph 31.1 mph N/A   Partly Cloudy
4:54 PM 60.1 °F 46.0 °F 60% 29.52 in 10.0 mi SSW 17.3 mph 25.3 mph N/A   Scattered Clouds
5:54 PM 57.9 °F 45.0 °F 62% 29.55 in 10.0 mi SSW 17.3 mph 29.9 mph N/A   Partly Cloudy
6:54 PM 55.0 °F 46.0 °F 72% 29.58 in 10.0 mi SSW 13.8 mph 21.9 mph N/A   Scattered Clouds
7:54 PM 54.0 °F 46.0 °F 75% 29.60 in 10.0 mi SSW 13.8 mph - N/A   Partly Cloudy
8:54 PM 53.6 °F 46.4 °F 77% 29.61 in 10.0 mi SSW 15.0 mph - N/A   Clear
9:54 PM 53.1 °F 46.0 °F 77% 29.64 in 10.0 mi SSW 11.5 mph - N/A   Clear
10:54 PM 54.0 °F 43.0 °F 66% 29.66 in 10.0 mi SW 16.1 mph 23.0 mph N/A   Overcast
11:54 PM 52.0 °F 39.9 °F 63% 29.67 in 10.0 mi SW 12.7 mph 20.7 mph N/A   Partly Cloudy